Location: Santa Barbara
(34.4500°N, 119.7700°W)
Time: 04:52:19
(UTC-07:00)

Cosmos 1626 Rocket - Visible Passes

Search period start: 28 April 2015 00:00
Search period end: 08 May 2015 00:00
Orbit: 603 x 633 km, 82.5° (Epoch: 27 April)

Date Brightness Start Highest point End Pass type
(mag) Time Alt. Az. Time Alt. Az. Time Alt. Az.
02 May 6.4 23:33:38 13° N 23:33:38 13° N 23:34:04 10° N visible
03 May 6.4 23:50:17 14° N 23:50:17 14° N 23:50:58 10° N visible
05 May 6.6 00:06:54 13° NNW 00:06:54 13° NNW 00:07:28 10° NNW visible
05 May 6.0 22:46:23 15° NNE 22:46:23 15° NNE 22:47:12 10° NNE visible
06 May 5.8 23:02:58 21° N 23:02:58 21° N 23:04:26 10° N visible
07 May 5.8 23:19:31 23° NNW 23:19:31 23° NNW 23:21:19 10° N visible
